Radiation Dose at Monitoring Post of Fukushima Daini Nuclear Power Station
Date,Time,MP-1(microSv/h),MP-2(microSv/h),MP-3(microSv/h),MP-4(microSv/h),MP-5(microSv/h),MP-6(microSv/h),MP-7(microSv/h),Wind Direction,Wind Velocity(m/s),Rain
2022/06/10,00:00,0.145,0.135,0.210,0.206,0.210,0.117,0.075,north-northeast,0.6,No
2022/06/10,00:10,0.145,0.135,0.211,0.205,0.211,0.116,0.074,north-northwest,0.6,No
2022/06/10,00:20,0.147,0.135,0.211,0.206,0.212,0.116,0.075,north,0.9,No
2022/06/10,00:30,0.146,0.135,0.211,0.205,0.211,0.116,0.075,north,1.0,No
2022/06/10,00:40,0.145,0.135,0.209,0.206,0.209,0.117,0.074,-,CALM,No
2022/06/10,00:50,0.145,0.135,0.211,0.206,0.212,0.116,0.075,north,0.7,No
2022/06/10,01:00,0.147,0.135,0.211,0.205,0.209,0.117,0.075,north-northeast,0.6,No
2022/06/10,01:10,0.146,0.135,0.210,0.207,0.212,0.117,0.074,-,CALM,No
2022/06/10,01:20,0.146,0.135,0.210,0.205,0.210,0.116,0.075,-,CALM,No
2022/06/10,01:30,0.146,0.136,0.210,0.206,0.212,0.117,0.075,-,CALM,No
2022/06/10,01:40,0.147,0.134,0.211,0.205,0.211,0.117,0.075,-,CALM,No
2022/06/10,01:50,0.146,0.136,0.211,0.207,0.212,0.115,0.075,west-northwest,0.6,No
2022/06/10,02:00,0.146,0.135,0.211,0.206,0.211,0.116,0.075,-,CALM,No
2022/06/10,02:10,0.147,0.136,0.209,0.206,0.211,0.116,0.075,-,CALM,No
2022/06/10,02:20,0.146,0.136,0.210,0.206,0.212,0.118,0.075,north-northeast,1.6,No
2022/06/10,02:30,0.146,0.136,0.212,0.205,0.211,0.116,0.075,north,1.4,No
2022/06/10,02:40,0.146,0.137,0.211,0.207,0.212,0.116,0.075,north-northeast,1.4,No
2022/06/10,02:50,0.148,0.135,0.211,0.207,0.211,0.116,0.075,north-northeast,1.8,No
2022/06/10,03:00,0.147,0.136,0.212,0.207,0.213,0.116,0.075,north-northwest,1.7,No
2022/06/10,03:10,0.145,0.136,0.211,0.207,0.212,0.117,0.075,north,1.1,No
2022/06/10,03:20,0.147,0.135,0.212,0.207,0.213,0.117,0.076,north-northeast,1.7,No
2022/06/10,03:30,0.146,0.136,0.211,0.206,0.211,0.118,0.076,north-northeast,0.7,No
2022/06/10,03:40,0.146,0.136,0.212,0.206,0.211,0.117,0.075,north,1.2,No
2022/06/10,03:50,0.145,0.136,0.211,0.208,0.211,0.117,0.076,north-northwest,1.0,No
2022/06/10,04:00,0.147,0.135,0.211,0.205,0.210,0.117,0.075,northwest,0.7,No
2022/06/10,04:10,0.145,0.136,0.212,0.207,0.212,0.117,0.075,west-northwest,0.7,No
2022/06/10,04:20,0.147,0.135,0.211,0.206,0.210,0.116,0.075,northwest,0.7,No
2022/06/10,04:30,0.146,0.135,0.212,0.206,0.212,0.116,0.076,west-northwest,1.0,No
2022/06/10,04:40,0.148,0.136,0.210,0.207,0.209,0.116,0.075,-,CALM,No
2022/06/10,04:50,0.147,0.135,0.213,0.207,0.211,0.117,0.075,west,0.7,No
2022/06/10,05:00,0.146,0.136,0.212,0.207,0.211,0.118,0.076,-,CALM,No
2022/06/10,05:10,0.146,0.135,0.211,0.206,0.214,0.117,0.076,-,CALM,No
2022/06/10,05:20,0.146,0.136,0.211,0.208,0.211,0.117,0.076,southwest,0.6,No
2022/06/10,05:30,0.147,0.135,0.212,0.205,0.212,0.117,0.075,-,CALM,No
2022/06/10,05:40,0.146,0.135,0.211,0.208,0.211,0.117,0.076,northwest,1.1,No
2022/06/10,05:50,0.147,0.135,0.210,0.205,0.211,0.117,0.076,-,CALM,No
2022/06/10,06:00,0.146,0.136,0.212,0.207,0.210,0.117,0.076,southeast,1.0,No
2022/06/10,06:10,0.146,0.134,0.210,0.205,0.210,0.116,0.074,south-southeast,1.0,No
2022/06/10,06:20,0.146,0.136,0.212,0.207,0.212,0.117,0.076,south-southeast,0.6,No
2022/06/10,06:30,0.146,0.134,0.210,0.205,0.209,0.118,0.075,south-southwest,0.8,No
2022/06/10,06:40,0.146,0.134,0.212,0.207,0.213,0.118,0.075,-,CALM,No
2022/06/10,06:50,0.146,0.135,0.210,0.205,0.211,0.117,0.075,-,CALM,No
2022/06/10,07:00,0.146,0.135,0.212,0.207,0.211,0.117,0.075,southeast,0.8,Yes
2022/06/10,07:10,0.147,0.135,0.211,0.205,0.212,0.117,0.075,southeast,1.2,No
2022/06/10,07:20,0.146,0.135,0.212,0.207,0.210,0.117,0.076,southeast,0.9,No
2022/06/10,07:30,0.146,0.136,0.211,0.206,0.213,0.117,0.075,southeast,0.8,No
2022/06/10,07:40,0.147,0.134,0.212,0.205,0.210,0.117,0.075,east,0.9,No
2022/06/10,07:50,0.146,0.136,0.210,0.208,0.212,0.117,0.075,east,1.0,Yes
2022/06/10,08:00,0.146,0.135,0.210,0.205,0.213,0.116,0.075,east-southeast,1.3,No
2022/06/10,08:10,0.145,0.135,0.211,0.206,0.209,0.117,0.075,east-southeast,1.6,No
2022/06/10,08:20,0.147,0.136,0.210,0.208,0.213,0.117,0.073,southeast,2.0,No
2022/06/10,08:30,0.145,0.135,0.208,0.205,0.210,0.116,0.075,southeast,2.3,No
2022/06/10,08:40,0.146,0.136,0.210,0.204,0.210,0.117,0.075,southeast,2.4,No
2022/06/10,08:50,0.145,0.135,0.213,0.207,0.212,0.115,0.074,east-southeast,1.5,No
2022/06/10,09:00,0.145,0.135,0.210,0.206,0.211,0.116,0.075,southeast,1.2,No
2022/06/10,09:10,0.146,0.134,0.208,0.204,0.209,0.117,0.075,southeast,2.1,No
2022/06/10,09:20,0.145,0.135,0.211,0.204,0.208,0.116,0.074,east-southeast,1.8,No
2022/06/10,09:30,0.146,0.135,0.212,0.203,0.211,0.116,0.074,southeast,1.6,No
2022/06/10,09:40,0.146,0.135,0.210,0.206,0.212,0.117,0.075,south-southeast,2.6,No
2022/06/10,09:50,0.144,0.135,0.209,0.206,0.209,0.116,0.075,east-southeast,2.2,No
2022/06/10,10:00,0.146,0.135,0.213,0.205,0.211,0.116,0.074,east,1.3,No
2022/06/10,10:10,0.144,0.134,0.212,0.207,0.212,0.117,0.074,east,1.9,No
2022/06/10,10:20,0.145,0.135,0.209,0.207,0.210,0.116,0.074,east-northeast,1.6,No
2022/06/10,10:30,0.147,0.133,0.212,0.206,0.211,0.116,0.075,north-northeast,2.0,No
2022/06/10,10:40,0.145,0.136,0.212,0.204,0.212,0.116,0.074,northeast,1.5,No
2022/06/10,10:50,0.146,0.135,0.209,0.209,0.211,0.115,0.075,north-northeast,2.2,No
2022/06/10,11:00,0.147,0.134,0.210,0.207,0.209,0.115,0.074,northeast,1.8,No
2022/06/10,11:10,0.145,0.135,0.212,0.205,0.208,0.116,0.073,northeast,1.6,No
2022/06/10,11:20,0.146,0.135,0.211,0.207,0.211,0.116,0.074,north-northeast,1.6,No
2022/06/10,11:30,0.145,0.135,0.212,0.207,0.211,0.116,0.075,northeast,1.3,Yes
2022/06/10,11:40,0.148,0.135,0.213,0.206,0.209,0.117,0.074,northeast,2.2,Yes
2022/06/10,11:50,0.145,0.135,0.212,0.208,0.213,0.117,0.075,north-northeast,1.6,Yes
2022/06/10,12:00,0.146,0.136,0.213,0.207,0.211,0.117,0.074,northeast,0.9,Yes
2022/06/10,12:10,0.146,0.135,0.212,0.208,0.209,0.117,0.075,northeast,1.1,No
2022/06/10,12:20,0.145,0.135,0.213,0.208,0.213,0.116,0.074,north-northeast,1.4,No
2022/06/10,12:30,0.147,0.135,0.211,0.205,0.212,0.117,0.075,northeast,1.3,No
2022/06/10,12:40,0.145,0.136,0.211,0.207,0.210,0.116,0.075,northeast,1.2,No
2022/06/10,12:50,0.146,0.136,0.213,0.208,0.212,0.116,0.074,-,CALM,No
2022/06/10,13:00,0.145,0.134,0.211,0.205,0.212,0.116,0.074,-,CALM,No
2022/06/10,13:10,0.146,0.136,0.213,0.209,0.211,0.116,0.075,east-northeast,1.5,No
2022/06/10,13:20,0.146,0.134,0.212,0.207,0.209,0.116,0.074,east-northeast,1.6,No
2022/06/10,13:30,0.145,0.135,0.212,0.206,0.212,0.116,0.074,northeast,1.8,No
2022/06/10,13:40,0.146,0.134,0.212,0.207,0.211,0.117,0.074,north-northeast,2.5,No
2022/06/10,13:50,0.145,0.135,0.210,0.208,0.210,0.115,0.075,north-northeast,1.8,Yes
2022/06/10,14:00,0.146,0.136,0.212,0.206,0.213,0.117,0.074,north-northeast,1.4,Yes
2022/06/10,14:10,0.146,0.134,0.212,0.208,0.211,0.117,0.075,northeast,0.7,Yes
2022/06/10,14:20,0.145,0.135,0.210,0.206,0.211,0.116,0.074,east-northeast,1.0,Yes
2022/06/10,14:30,0.147,0.135,0.212,0.207,0.212,0.117,0.075,-,CALM,Yes
2022/06/10,14:40,0.146,0.136,0.212,0.208,0.211,0.118,0.076,east-northeast,1.5,Yes
2022/06/10,14:50,0.149,0.138,0.215,0.207,0.212,0.120,0.078,-,CALM,Yes
2022/06/10,15:00,0.149,0.138,0.214,0.211,0.214,0.120,0.079,south-southeast,1.7,Yes
2022/06/10,15:10,0.149,0.138,0.215,0.209,0.214,0.120,0.078,south-southeast,1.8,Yes
2022/06/10,15:20,0.148,0.138,0.214,0.210,0.216,0.120,0.078,south-southeast,2.5,Yes
2022/06/10,15:30,0.150,0.137,0.215,0.208,0.210,0.119,0.078,south,2.3,Yes
2022/06/10,15:40,0.148,0.138,0.213,0.209,0.213,0.119,0.076,south,1.8,No
2022/06/10,15:50,0.146,0.137,0.212,0.209,0.212,0.118,0.077,south,1.5,No
2022/06/10,16:00,0.147,0.136,0.213,0.206,0.211,0.117,0.076,south,0.9,No
2022/06/10,16:10,0.147,0.135,0.211,0.207,0.210,0.118,0.076,south-southwest,1.7,No
2022/06/10,16:20,0.147,0.135,0.212,0.206,0.212,0.116,0.076,south-southeast,2.4,No
2022/06/10,16:30,0.146,0.135,0.211,0.205,0.212,0.116,0.075,south-southeast,3.9,No
2022/06/10,16:40,0.146,0.135,0.212,0.207,0.209,0.117,0.075,south-southeast,3.7,No
2022/06/10,16:50,0.146,0.136,0.212,0.206,0.212,0.116,0.075,south-southeast,4.2,No
2022/06/10,17:00,0.145,0.135,0.211,0.207,0.211,0.116,0.075,south-southeast,3.9,No
2022/06/10,17:10,0.147,0.136,0.212,0.206,0.208,0.116,0.074,south-southeast,4.2,No
2022/06/10,17:20,0.145,0.135,0.210,0.207,0.211,0.116,0.074,south-southeast,4.3,No
2022/06/10,17:30,0.145,0.136,0.212,0.207,0.211,0.116,0.075,south-southeast,4.5,No
2022/06/10,17:40,0.147,0.134,0.211,0.207,0.209,0.116,0.074,south-southeast,5.1,No
2022/06/10,17:50,0.146,0.136,0.212,0.208,0.211,0.116,0.074,south-southeast,5.3,No
2022/06/10,18:00,0.146,0.135,0.210,0.206,0.212,0.116,0.074,south-southeast,5.7,No
2022/06/10,18:10,0.146,0.134,0.212,0.208,0.208,0.117,0.075,south-southeast,4.8,No
2022/06/10,18:20,0.145,0.134,0.211,0.205,0.212,0.117,0.074,south,3.9,No
2022/06/10,18:30,0.146,0.135,0.210,0.207,0.212,0.116,0.074,south,3.7,No
2022/06/10,18:40,0.146,0.134,0.212,0.206,0.211,0.117,0.074,south,3.6,No
2022/06/10,18:50,0.146,0.136,0.211,0.208,0.211,0.116,0.074,south,4.0,No
2022/06/10,19:00,0.145,0.135,0.212,0.206,0.211,0.117,0.075,south,4.4,No
2022/06/10,19:10,0.145,0.136,0.211,0.207,0.213,0.116,0.074,south,5.0,No
2022/06/10,19:20,0.147,0.135,0.211,0.206,0.210,0.117,0.074,south,4.0,No
2022/06/10,19:30,0.147,0.135,0.211,0.207,0.212,0.116,0.074,south,4.3,No
2022/06/10,19:40,0.145,0.134,0.210,0.207,0.210,0.116,0.075,south,5.6,No
2022/06/10,19:50,0.146,0.135,0.212,0.208,0.212,0.116,0.075,south,5.3,No
2022/06/10,20:00,0.146,0.136,0.211,0.207,0.210,0.117,0.075,south,4.9,No
2022/06/10,20:10,0.145,0.136,0.212,0.207,0.212,0.115,0.075,south,4.9,No
2022/06/10,20:20,0.147,0.135,0.209,0.207,0.209,0.117,0.074,south,5.0,No
2022/06/10,20:30,0.145,0.135,0.212,0.206,0.212,0.116,0.074,south,4.4,No
2022/06/10,20:40,0.147,0.136,0.212,0.207,0.209,0.117,0.074,south,4.5,No
2022/06/10,20:50,0.146,0.135,0.212,0.207,0.213,0.117,0.075,south,4.2,No
2022/06/10,21:00,0.147,0.136,0.211,0.208,0.210,0.117,0.074,south,4.5,No
2022/06/10,21:10,0.147,0.136,0.213,0.207,0.212,0.116,0.076,south-southwest,3.6,No
2022/06/10,21:20,0.147,0.136,0.212,0.208,0.211,0.117,0.075,south,3.2,No
2022/06/10,21:30,0.146,0.136,0.211,0.207,0.213,0.117,0.075,south,3.0,No
2022/06/10,21:40,0.147,0.136,0.214,0.208,0.210,0.118,0.075,south,2.9,No
2022/06/10,21:50,0.145,0.136,0.212,0.207,0.212,0.118,0.076,south-southwest,3.1,No
2022/06/10,22:00,0.147,0.135,0.214,0.209,0.211,0.118,0.075,south-southwest,2.4,No
2022/06/10,22:10,0.147,0.136,0.211,0.207,0.212,0.116,0.075,south-southwest,2.3,No
2022/06/10,22:20,0.147,0.136,0.213,0.208,0.209,0.117,0.075,south-southwest,2.0,No
2022/06/10,22:30,0.146,0.136,0.213,0.209,0.213,0.118,0.075,south-southwest,2.2,No
2022/06/10,22:40,0.147,0.136,0.212,0.207,0.210,0.117,0.075,south,2.4,No
2022/06/10,22:50,0.147,0.136,0.213,0.208,0.213,0.117,0.075,south,2.0,No
2022/06/10,23:00,0.147,0.136,0.211,0.207,0.211,0.117,0.076,south,2.1,No
2022/06/10,23:10,0.147,0.136,0.213,0.208,0.212,0.116,0.075,south,3.0,No
2022/06/10,23:20,0.146,0.136,0.212,0.207,0.210,0.117,0.075,south,3.5,No
2022/06/10,23:30,0.148,0.136,0.212,0.208,0.212,0.117,0.075,south,3.5,No
2022/06/10,23:40,0.147,0.135,0.212,0.208,0.210,0.117,0.075,south,2.8,No
2022/06/10,23:50,0.147,0.137,0.213,0.209,0.212,0.118,0.075,south,3.3,No
